Location: Boussy-Saint-Antoine
(48.6830°N, 2.5330°E)
Time: 07:04:04
(UTC+02:00)

KKS-1 - Visible Passes

Search period start: 21 July 2019 00:00
Search period end: 31 July 2019 00:00
Orbit: 636 x 651 km, 98.3° (Epoch: 20 July)

Date Brightness Start Highest point End Pass type
(mag) Time Alt. Az. Time Alt. Az. Time Alt. Az.
21 Jul ? 22:36:32 10° NNW 22:39:34 18° WNW 22:42:35 10° WSW visible
22 Jul ? 23:02:16 10° NW 23:03:48 12° NW 23:05:22 10° WNW visible
24 Jul ? 22:13:08 10° N 22:16:54 28° WNW 22:20:41 10° WSW visible
25 Jul ? 22:38:14 10° NNW 22:41:14 18° WNW 22:44:14 10° WSW visible
26 Jul ? 23:04:01 10° NW 23:05:29 11° NW 23:06:57 10° WNW visible
28 Jul ? 22:14:49 10° N 22:18:35 28° WNW 22:22:20 10° WSW visible
29 Jul ? 22:39:56 10° NNW 22:42:54 18° WNW 22:45:52 10° WSW visible
30 Jul ? 23:05:46 10° NW 23:07:09 11° NW 23:08:31 10° WNW visible
